Preview of NWS' New Version of Forecast
This preview is not operational and should not be used for support decisions.

Regional Weather Roundup (RWR)

Issued by Gray - Portland, ME (GYX)

                            
000
ASUS41 KGYX 181610
RWRGYX
WEATHER ROUNDUP FOR MAINE AND NEW HAMPSHIRE
NATIONAL WEATHER SERVICE GRAY ME
1100 AM EST MON FEB 18 2019

MEZ002-005-006-010-012-015-018-020-021-024-026-027-029-181700-
MAINE
  
CITY           SKY/WX    TMP DP  RH WIND       PRES   REMARKS
PORTLAND       CLOUDY    19  13  77 NE12G28   29.90F WCI   7          
SANFORD        MIX PCPN  19  15  84 N14       29.87F FOG     WCI   6  
BAR HARBOR     LGT SNOW  18   9  68 NE9       29.92F                  
WISCASSET      CLOUDY    19  12  74 VRB5      29.92F                  
ROCKLAND       FLURRIES  19  15  84 NE15G21   29.90F WCI   5          
FRYEBURG       LGT SNOW  18  13  80 N5        29.89F                  
LEWISTONAUBURN FLURRIES  16  10  77 N12       29.90F WCI   3          
AUGUSTA        SNOW      14   9  80 N8        29.91F VSB 1/2          
WATERVILLE     LGT SNOW  13   8  81 N8        29.90F                  
BANGOR         LGT SNOW  15   7  70 N9        29.94F VSB 1            
GREENVILLE       N/A     12  -6  44 CALM      29.81F                  
MILLINOCKET    CLOUDY    13   1  59 VRB5      29.95F                  
HOULTON        NOT AVBL                                               
PRESQUE ISLE   FAIR      13  -1  54 N7        29.94F                  
FRENCHVILLE    FAIR       8  -4  58 N12       29.89F WCI  -7          
CARIBOU        FAIR       9  -2  61 N10       29.91F WCI  -5          
$$

NHZ002-005-008-009-011-012-014-181700-
NEW HAMPSHIRE
  
CITY           SKY/WX    TMP DP  RH WIND       PRES   REMARKS
PORTSMOUTH     LGTSLEET  23  19  85 NE7       29.84F FOG              
ROCHESTER      CLOUDY    20  18  92 N6        29.85F FOG              
NASHUA         LGT SNOW  28  26  92 N6        29.83F FOG              
MANCHESTER     LGTSLEET  26  21  81 N9        29.82F                  
CONCORD        LGT SNOW  23  20  88 N6        29.84F FOG              
LACONIA        LGT SNOW  18  15  88 NE8       29.85F FOG              
PLYMOUTH       CLOUDY    21  16  79 CALM      29.86S                  
BERLIN         LGT SNOW  14   9  80 CALM      29.84S VSB 3/4          
WHITEFIELD     LGT SNOW  19  13  77 N6        29.83R VSB 3/4          
JAFFREY        LGT SNOW  25  23  92 CALM      29.78S FOG              
KEENE          LGT SNOW  28  21  74 CALM      29.82F                  
LEBANON        LGT SNOW  19  11  70 NE6       29.86R                  
MT WASHINGTON  SNOW       7   7 100 SW15        N/A  VSB 1/2 WCI -11  
$$

VTZ005-007-008-181700-
VERMONT
  
CITY           SKY/WX    TMP DP  RH WIND       PRES   REMARKS
ST JOHNSBURY     N/A     15  11  83 MISG      29.86R                  
MONTPELIER     LGT SNOW  14  12  92 N5        29.87S VSB 3/4          
BURLINGTON     LGT SNOW  11   6  81 N15       29.94S VSB 3/4 WCI  -5  
$$

MAZ007-012-024-CTZ003-RIZ002-NYZ038-NYZ072-181700-
SOUTHERN NEW ENGLAND AND NY
  
CITY           SKY/WX    TMP DP  RH WIND       PRES   REMARKS
BOSTON         CLOUDY    32  28  85 N12       29.82F FOG              
WORCESTER      LGT SNOW  26  25  96 NE6       29.77F FOG              
NANTUCKET      MIX PCPN  36  35  96 NE8       29.74S FOG              
PROVIDENCE     LGT SNOW  31  29  92 N8        29.81F VSB 1            
HARTFORD       LGT SNOW  31  27  85 N6        29.82S VSB 1            
ALBANY         LGT SNOW  20  14  77 N6        29.87R                  
NEW YORK CITY  DRIZZLE   36  34  92 N3        29.83S FOG              
$$

ANZ081-ANZ082-ANZ150-NHZ014-MEZ023>029-181700-
COASTAL MARINE OBSERVATIONS
  
STATION/POSITION TIME  TEMP    WIND        PRES    WAVE
                       AIR SEA DIR/SP/G            HT/PER
                 (UTC) (F)     (DEG/KT/KT) (MB)    (FT/S)
MOUNT DESERT ROC 1600   27      30/ 20/ 23 1011.7F
MATINICUS ROCK   1600   25      40/ 24/ 27 1010.8F
ISLE OF SHOALS   1600   24      20/ 24/ 26 1009.8F
JEFFREYS LEDGE   1538      40                N/A     3/ 4
CASHES LEDGE BUO 1550   30 39              1010.5F   3/10
$$

.............KEY..............
   WCI - WIND CHILL
   TC  - TEMPERATURE IN CELSIUS
   VSB - VISIBILITY IN MILES
   HX  - HEAT INDEX
   FAIR- INDICATES FEW OR NO CLOUDS BELOW 12,000 FT, WITH NO 
         SIGNIFICANT WEATHER AND/OR OBSTRUCTIONS TO VISIBILITY.